Voltar ao catálogo

YZ-1 R/B

AtivoMEO
NORAD 43650·ROCKET BODY·🇨🇳 China

Lançado Oct 15, 2018 de Xichang Satellite Launch Center

Loading…

Próximas Passagens (próximas 24 horas)

TLE

AtualizadoSource: Space-Track

Época: Sep 14, 2026, 06:39 UTC

1 43650U 18078D   26257.27718904 -.00000060  00000-0  00000-0 0  9999
2 43650  53.9424 306.0360 0106592  66.1351 295.0435  1.77586592 51341

Acompanhe YZ-1 R/B em tempo real com AllMySat

Download on the App Store